BMCB-30 Weather Reports


time (UTC)temp
F
wind
direction
speed
knots
gust
knots
rain 1hr
in
rain 24hr
in
rain mn
in
humidity
%
barometer
mb
20260507095043 55 0 0.0 0.0 0.00 0.01 0.00 70 1017.4
20260507094043 55 0 0.0 0.0 0.00 0.02 0.00 72 1017.4
20260507092048 53 0 0.0 0.0 0.00 0.02 0.00 75 1017.4
20260507091044 54 0 0.0 0.0 0.00 0.03 0.00 75 1017.3
20260507090047 54 0 0.0 0.0 0.00 0.04 0.00 77 1017.2
20260507085045 55 0 0.0 0.0 0.00 0.04 0.00 79 1017.2
20260507083044 52 0 0.0 0.0 0.00 0.06 0.00 80 1017.2
20260507082045 52 0 0.0 0.0 0.00 0.06 0.00 81 1017.2
20260507081048 52 0 0.0 0.0 0.00 0.07 0.00 82 1017.1
20260507080045 52 0 0.0 0.0 0.00 0.07 0.00 84 1017.0
20260507075049 51 0 0.0 0.0 0.00 0.08 0.00 83 1017.1
20260507074045 51 0 0.0 0.0 0.00 0.08 0.00 84 1017.0
20260507073048 50 0 0.0 0.0 0.00 0.08 0.00 86 1017.0
20260507072045 50 0 0.0 0.0 0.00 0.08 0.00 88 1016.9
20260507071043 49 0 0.0 0.0 0.00 0.09 0.00 90 1016.9
20260507070046 48 0 0.0 0.0 0.00 0.09 0.00 93 1016.9
20260507064046 47 0 0.0 0.0 0.00 0.09 0.00 93 1016.9
20260507062045 46 0 0.0 0.0 0.00 0.10 0.00 99 1016.7
20260507060044 46 0 0.0 0.0 0.00 0.12 0.00 10 1016.6
20260507053042 45 0 0.0 0.0 0.00 0.15 0.00 10 1016.3
20260507052046 45 0 0.0 0.0 0.00 0.16 0.00 10 1016.2
20260507051047 45 0 0.0 0.0 0.00 0.17 0.00 10 1016.1
20260507050046 45 0 0.0 0.0 0.00 0.18 0.00 10 1015.9
20260507045045 45 0 0.0 0.0 0.00 0.18 0.00 10 1015.8
20260507044046 44 0 0.0 0.0 0.00 0.19 0.00 10 1015.7
20260507043048 44 0 0.0 0.0 0.00 0.20 0.00 10 1015.7
20260507042046 44 0 0.0 0.0 0.00 0.20 0.00 10 1015.6
20260507041045 44 0 0.0 0.0 0.00 0.20 0.00 10 1015.5
20260507040048 44 0 0.0 0.0 0.00 0.20 0.00 10 1015.5
20260507035045 44 0 0.0 0.0 0.00 0.21 0.00 10 1015.4
20260507034045 44 0 0.0 0.0 0.00 0.22 0.00 10 1015.5
20260507033047 44 0 0.0 0.0 0.00 0.22 0.00 10 1015.3
20260507032047 44 0 0.0 0.0 0.00 0.23 0.00 10 1015.3
20260507031046 44 0 0.0 0.0 0.00 0.24 0.00 10 1015.2
20260507030045 44 0 0.0 0.0 0.00 0.24 0.00 10 1015.2
20260507025044 45 0 0.0 0.0 0.00 0.24 0.00 10 1015.1
20260507024045 45 0 0.0 0.0 0.00 0.25 0.00 10 1015.1
20260507023042 44 0 0.0 0.0 0.00 0.25 0.00 10 1015.1
20260507022048 44 0 0.0 0.0 0.00 0.26 0.00 10 1015.0
20260507021044 45 0 0.0 0.0 0.00 0.27 0.00 10 1014.9
20260507020044 44 0 0.0 0.0 0.00 0.28 0.00 10 1014.9
20260507014044 44 0 0.0 0.0 0.00 0.30 0.00 10 1014.9
20260507012045 44 0 0.0 0.0 0.00 0.32 0.00 10 1014.8
20260507011046 44 0 0.0 0.0 0.00 0.33 0.00 10 1014.8
20260507010046 44 0 0.0 0.0 0.00 0.34 0.00 10 1014.7
20260507005045 44 0 0.0 0.0 0.00 0.35 0.00 10 1014.7
20260507004046 44 0 0.0 0.0 0.00 0.35 0.00 10 1014.7
20260507003044 44 0 0.0 0.0 0.00 0.35 0.00 10 1014.7
20260507002046 44 0 0.0 0.0 0.00 0.36 0.00 10 1014.7
20260507001043 43 0 0.0 0.0 0.00 0.38 0.00 10 1014.7
20260507000048 43 0 0.0 0.0 0.00 0.39 0.00 10 1014.6
20260506235048 43 0 0.0 0.0 0.00 0.41 0.00 10 1014.5
20260506234048 43 0 0.0 0.0 0.00 0.42 0.00 10 1014.6
20260506233049 43 0 0.0 0.0 0.00 0.43 0.00 10 1014.5
20260506232046 43 0 0.0 0.0 0.00 0.44 0.00 10 1014.5
20260506231047 42 0 0.0 0.0 0.00 0.45 0.00 10 1014.4
20260506230048 42 0 0.0 0.0 0.00 0.46 0.00 10 1014.3
20260506225045 42 0 0.0 0.0 0.00 0.46 0.00 99 1014.2
20260506223048 43 0 0.0 0.0 0.00 0.48 0.00 99 1014.1
20260506222047 43 0 0.0 0.0 0.00 0.49 0.00 99 1014.0
20260506221045 43 0 0.0 0.0 0.00 0.50 0.00 99 1013.9
20260506220055 43 0 0.0 0.0 0.00 0.50 0.00 99 1013.8
20260506213048 44 0 0.0 0.0 0.00 0.51 0.50 98 1013.6
20260506212049 45 0 0.0 0.0 0.00 0.52 0.50 98 1013.5
20260506211049 45 0 0.0 0.0 0.00 0.52 0.50 99 1013.3
20260506210048 46 0 0.0 0.0 0.00 0.52 0.50 98 1013.2
20260506205048 46 0 0.0 0.0 0.00 0.53 0.50 98 1013.1
20260506204047 46 0 0.0 0.0 0.00 0.53 0.50 98 1012.9
20260506203049 47 0 0.0 0.0 0.00 0.53 0.50 98 1012.8
20260506202047 48 0 0.0 0.0 0.00 0.54 0.50 98 1012.7
20260506201051 48 0 0.0 0.0 0.00 0.54 0.50 98 1012.6
20260506200049 49 0 0.0 0.0 0.00 0.54 0.50 97 1012.5
20260506195048 49 0 0.0 0.0 0.00 0.54 0.50 97 1012.4
20260506193050 50 0 0.0 0.0 0.00 0.55 0.50 98 1012.2
20260506192046 50 0 0.0 0.0 0.00 0.56 0.50 97 1012.1
20260506191046 50 0 0.0 0.0 0.00 0.57 0.50 97 1012.1
20260506190048 50 0 0.0 0.0 0.00 0.57 0.50 96 1012.0
20260506184046 51 0 0.0 0.0 0.00 0.59 0.50 95 1011.8
20260506183054 51 0 0.0 0.0 0.00 0.59 0.50 93 1011.8
20260506182049 51 0 0.0 0.0 0.00 0.60 0.50 93 1011.6
20260506181045 51 0 0.0 0.0 0.00 0.61 0.50 92 1011.5
20260506180048 51 0 0.0 0.0 0.00 0.61 0.50 92 1011.4
20260506175049 51 0 0.0 0.0 0.00 0.61 0.50 91 1011.3
20260506174049 51 0 0.0 0.0 0.00 0.61 0.50 90 1011.2
20260506173045 51 0 0.0 0.0 0.00 0.62 0.50 88 1011.1
20260506171050 52 0 0.0 0.0 0.00 0.63 0.50 92 1010.9
20260506170045 52 0 0.0 0.0 0.00 0.64 0.50 91 1010.9
20260506165044 52 0 0.0 0.0 0.00 0.64 0.50 90 1010.9
20260506164046 53 0 0.0 0.0 0.00 0.64 0.50 88 1010.8
20260506163046 53 0 0.0 0.0 0.00 0.65 0.50 89 1010.7
20260506162047 53 0 0.0 0.0 0.00 0.65 0.50 90 1010.7
20260506160046 52 0 0.0 0.0 0.00 0.65 0.50 88 1010.8
20260506155045 52 0 0.0 0.0 0.00 0.65 0.50 90 1010.8
20260506154050 52 0 0.0 0.0 0.00 0.66 0.50 90 1010.8
20260506153047 52 0 0.0 0.0 0.00 0.66 0.50 92 1010.8
20260506152046 52 0 0.0 0.0 0.00 0.66 0.50 90 1010.8
20260506151049 52 0 0.0 0.0 0.00 0.66 0.50 89 1010.7
20260506145047 51 0 0.0 0.0 0.00 0.66 0.50 94 1010.8
20260506144046 51 0 0.0 0.0 0.00 0.66 0.50 97 1010.9
20260506142045 51 0 0.0 0.0 0.00 0.66 0.50 96 1010.9
20260506141046 51 0 0.0 0.0 0.00 0.66 0.50 95 1010.9
20260506140052 51 0 0.0 0.0 0.00 0.66 0.50 94 1010.8
20260506135047 51 0 0.0 0.0 0.00 0.66 0.50 93 1010.8
20260506134047 51 0 0.0 0.0 0.00 0.66 0.50 93 1010.8
20260506133045 51 0 0.0 0.0 0.00 0.66 0.50 95 1010.8
20260506132046 51 0 0.0 0.0 0.00 0.66 0.50 95 1010.8
20260506131046 51 0 0.0 0.0 0.00 0.66 0.50 94 1010.8
20260506130046 51 0 0.0 0.0 0.00 0.66 0.50 94 1010.7
20260506125047 51 0 0.0 0.0 0.00 0.66 0.50 94 1010.7
20260506124045 52 0 0.0 0.0 0.00 0.66 0.50 94 1010.5
20260506123047 52 0 0.0 0.0 0.00 0.66 0.50 95 1010.4
20260506122046 51 0 0.0 0.0 0.00 0.66 0.50 95 1010.3
20260506121045 51 0 0.0 0.0 0.00 0.66 0.50 96 1010.3
20260506120044 50 0 0.0 0.0 0.00 0.66 0.50 97 1010.2
20260506115045 50 0 0.0 0.0 0.00 0.66 0.50 97 1010.2
20260506114047 50 0 0.0 0.0 0.00 0.66 0.50 99 1010.0
20260506113050 50 0 0.0 0.0 0.01 0.66 0.50 10 1010.0
20260506112047 50 0 0.0 0.0 0.01 0.66 0.50 10 1010.0
20260506110044 50 0 0.0 0.0 0.01 0.66 0.50 10 1010.1
20260506105045 49 0 0.0 0.0 0.01 0.66 0.50 10 1010.1
20260506104045 49 0 0.0 0.0 0.02 0.66 0.50 10 1010.1
20260506103048 49 0 0.0 0.0 0.02 0.66 0.50 10 1010.1
20260506102050 49 0 0.0 0.0 0.02 0.65 0.50 10 1010.1